DELTA 1 DEB, 40766

Orbit data source: Space-Track

DELTA 1 DEB, 40766 is space debris in SSO originally from a launch on Thu, 29 Jul 1976 UTC launched from the Air Force Western Test Range (AFWTR). Debris objects in space refer to the collection of defunct objects orbiting the Earth. Examples of debris include non-operational satellites, rocket bodies, and fragments generated from explosions, collisions, or faulty payload assembly.

Loading next visibility...
Identifier
40766, 1976-077GK
Orbit
SSO
Country
Flag of USUS
Related business
Manufacturer
Unknown
Mission
Spacecraft
Bus & Motor
Unknown
Mass
Unknown
Launch date (UTC)
1976-07-29 (50 years ago)
Launch vehicle
Unknown
Launch site
Air Force Western Test Range (AFWTR)
Object type
Payload
Rocket body
Debris
Shape & HBR
Unknown shape, 0.1 m
Radar Cross Section
Small (<0.1 m²)

Expand to show TLE details & history
Last TLE update: 15 hours ago

TLE from 15 hours ago
0 DELTA 1 DEB
1 40766U 76077GK  26118.66757119 -.00000041  00000-0  26844-4 0  9994
2 40766 102.1416  20.5531 0101826 296.4511  91.5528 12.23252061114901
Epoch: 2026-04-28T16:01Z
TLE epoch observation values (Epoch: 2026-04-28T16:01:18.150Z)
Latitude
28.49965°
Longitude
-83.08753°
Altitude
1,584.613 km
Speed
7.078 km/s
True Right ascension
00h 55m 30s
True Declination
28° 22' 14"
Sunlit
Object was in daylight at epoch
Visualization orbit readout
Latitude
Unknown
Longitude
Unknown
Altitude
Unknown
Speed
Unknown
Apparent Right ascension
Unknown
Apparent Declination
Unknown
Sunlit
N/A
Visualization observer readout
Local Sidereal Time
14:43:47
Azimuth
Unknown
Elevation
Unknown
Doppler factor
Unknown
Orbital elements
Apogee altitude
1,657.007 km
Perigee altitude
1,495.019 km
Semi-major axis
7,954.15 km
Eccentricity
0.01018
Inclination
102.1416°
RAAN
20.5531°
Arg. of periapsis
296.4511°
True anomaly
92.71873°
Mean anomaly
91.5528°
Eccentric anomaly
92.13581°
Mean motion
3.05951 °/min
Orbital period
117.67 mins
BSTAR
0.000026844
Loading maneuver chart data...
Computing Atmospheric mass density...
Loading historical data...
Loading historical data...
Loading historical data...
Loading historical data...
Loading historical data...
Loading historical data...
Loading historical data...

Documentation

Showing up to 5 results
|